Location: LDNL
(36.4545°S, 141.6685°E)
Time: 06:14:56
(UTC+10:00)

Tiros 1 despin weight - Visible Passes

Search period start: 10 August 2022 00:00
Search period end: 20 August 2022 00:00
Orbit: 591 x 638 km, 48.2° (Epoch: 09 August)

Date Brightness Start Highest point End Pass type
(mag) Time Alt. Az. Time Alt. Az. Time Alt. Az.
10 Aug ? 05:48:40 19° SSW 05:50:55 26° SSE 05:54:54 10° ESE visible
11 Aug ? 04:26:33 14° SE 04:26:33 14° SE 04:27:42 10° SE visible
11 Aug ? 06:03:32 17° SW 06:06:45 37° SSE 06:11:08 10° E visible
12 Aug ? 04:41:28 20° SE 04:41:28 20° SE 04:44:00 10° ESE visible
12 Aug ? 06:18:27 14° SW 06:22:29 60° SSE 06:27:07 10° ENE visible
13 Aug ? 04:56:26 29° SSE 04:56:26 29° SSE 05:00:18 10° E visible
13 Aug ? 06:33:26 11° WSW 06:38:03 77° NW 06:42:43 10° NE visible
14 Aug ? 05:11:29 42° S 05:11:57 43° SSE 05:16:27 10° E visible
14 Aug ? 06:49:03 10° WSW 06:53:28 39° NW 06:57:49 10° NNE visible
15 Aug ? 05:26:36 53° SSW 05:27:37 73° SE 05:32:19 10° ENE visible
16 Aug ? 04:04:48 14° E 04:04:48 14° E 04:05:39 10° E visible
16 Aug ? 05:41:50 43° W 05:43:07 61° NW 05:47:44 10° NE visible
17 Aug ? 04:20:08 20° E 04:20:08 20° E 04:21:42 10° ENE visible
17 Aug ? 05:57:09 26° WNW 05:58:28 31° NW 06:02:36 10° NNE visible
18 Aug ? 04:35:33 24° NE 04:35:33 24° NE 04:37:25 10° NE visible
18 Aug ? 06:12:35 14° WNW 06:13:42 15° NW 06:16:27 10° NNW visible
19 Aug ? 04:51:05 20° NNE 04:51:05 20° NNE 04:52:40 10° NNE visible
